Regional Weather Roundup
Issued by NWS

Home | Current Version | Previous Version | Graphics & Text | Print | Product List | Glossary On
Versions: 1 2 3 4 5 6 7 8 9 10 11 12 13 14 15 16 17 18 19 20 21 22 23 24 25 26 27 28 29 30 31 32 33 34 35 36 37 38 39 40 41 42 43 44 45 46 47 48 49 50
857
ASUS43 KBIS 300410
RWRND
NORTH DAKOTA REGIONAL WEATHER ROUNDUP
NATIONAL WEATHER SERVICE EASTERN NORTH DAKOTA/GRAND FORKS ND
1100 PM CDT MON MAY 29 2017

  NOTE: "FAIR" INDICATES FEW OR NO CLOUDS BELOW 12,000 FEET WITH NO
  SIGNIFICANT WEATHER AND/OR OBSTRUCTIONS TO VISIBILITY.

NDZ001>003-009>011-017-300500-
...NORTHWEST NORTH DAKOTA...

CITY           SKY/WX    TMP DP  RH WIND       PRES   REMARKS
WILLISTON      FAIR      51  31  46 NW12      30.06R
MINOT          FAIR      47  38  71 NW6       30.01R
MINOT AFB      FAIR      50  39  65 N7        30.00R
$$

NDZ018>021-031>035-040>046-300500-
...SOUTHWEST NORTH DAKOTA...

CITY           SKY/WX    TMP DP  RH WIND       PRES   REMARKS
BISMARCK       FAIR      54  36  50 N5        30.01R
DICKINSON      FAIR      47  29  49 W5        30.04S
GARRISON         N/A     43  36  76 CALM      30.01R
HETTINGER      FAIR      44  31  60 CALM      30.08R
$$

NDZ004>008-012>016-024-026-027-054-300500-
...NORTHEAST NORTH DAKOTA...

CITY           SKY/WX    TMP DP  RH WIND       PRES   REMARKS
GRAND FORKS    CLOUDY    50  44  80 NW14G22   29.91S
GRAND FORKS AF CLOUDY    48  43  82 N15G23    29.92S
DEVILS LAKE    CLOUDY    50  42  74 N14       29.96R
$$

NDZ022-023-025-028>030-036>039-047>053-300500-
...SOUTHEAST NORTH DAKOTA...

CITY           SKY/WX    TMP DP  RH WIND       PRES   REMARKS
JAMESTOWN      FAIR      47  41  80 NW7       29.96R
FARGO          CLOUDY    52  44  74 NW10      29.92R
WAHPETON       CLOUDY    52  43  71 N13       29.93R
$$




USA.gov is the U.S. government's official web portal to all federal, state and local government web resources and services.